Regional Weather Roundup
Issued by NWS

Home | Current Version | Previous Version | Graphics & Text | Print | Product List | Glossary On
Versions: 1 2 3 4 5 6 7 8 9 10 11 12 13 14 15 16 17 18 19 20 21 22 23 24 25 26 27 28 29 30 31 32 33 34 35 36 37 38 39 40 41 42 43 44 45 46 47 48 49 50
000
ASUS45 KCYS 280410
RWRWY

WYOMING REGIONAL WEATHER ROUNDUP
NATIONAL WEATHER SERVICE CHEYENNE WY
1000 PM MDT TUE JUN 27 2017

NOTE:  "FAIR" INDICATES FEW OR NO CLOUDS BELOW 12,000 FEET
WITH NO SIGNIFICANT WEATHER AND/OR OBSTRUCTIONS TO VISIBILITY.

WYZ001-280500-
YELLOWSTONE NATIONAL PARK

CITY           SKY/WX    TMP DP  RH WIND       PRES   REMARKS
LK YELLOWSTONE   N/A     43  43 100 CALM      30.14S
W YELLOWSTONE  NOT AVBL

$$
WYZ002>013-054>058-071-098>099-280500-
NORTHERN WYOMING

CITY           SKY/WX    TMP DP  RH WIND       PRES   REMARKS
JACKSON        FAIR      54  46  76 CALM      30.05S
CODY           FAIR      63  41  44 W12       29.93F
GREYBULL       FAIR      70  41  34 NW10      29.86R
WORLAND        FAIR      56  45  66 SE3       29.89R
SHERIDAN       FAIR      59  52  77 W7        29.88R
BUFFALO        FAIR      58  47  66 NW9G21    29.93R
GILLETTE       MOCLDY    62  52  69 NW12      29.85R
NEWCASTLE      FAIR      61  46  59 N7        29.83R

$$
WYZ014>020-022>026-101>103-280500-
CENTRAL WYOMING

CITY           SKY/WX    TMP DP  RH WIND       PRES   REMARKS
BIG PINEY      FAIR      54  39  57 N10       30.07R
PINEDALE       FAIR      50  45  81 CALM      30.08R
DUBOIS         FAIR      50  37  62 NW10      30.08R
LANDER         FAIR      58  42  55 SE5       30.00R
RIVERTON       FAIR      61  38  42 NW8       29.97R
CASPER         FAIR      56  39  53 NW7       29.96R
DOUGLAS        FAIR      56  46  69 NW5       29.91R

$$
WYZ021-027>030-104>119-280500-
SOUTHERN WYOMING

CITY           SKY/WX    TMP DP  RH WIND       PRES   REMARKS
EVANSTON       FAIR      63  33  32 W9        30.07F
KEMMERER         N/A     57  32  38 E3        30.10R
FORT BRIDGER   FAIR      62  29  29 W5        30.09S
ROCK SPRINGS   FAIR      64  31  28 N5        30.05R
DIXON          FAIR      60  40  47 CALM      30.05R
RAWLINS        FAIR      51  43  74 CALM      30.06R
SARATOGA       FAIR      55  45  67 CALM      30.08R
LARAMIE        FAIR      54  41  61 N7        30.04R
CHEYENNE       FAIR      69  36  29 NW14      29.94R
TORRINGTON     FAIR      63  44  50 NE5       29.82R
PINE BLUFFS    FAIR      70  36  28 NW17      29.86R

$$



USA.gov is the U.S. government's official web portal to all federal, state and local government web resources and services.